Time,TemperatureF,DewpointF,PressureIn,WindDirection,WindDirectionDegrees,WindSpeedMPH,WindSpeedGustMPH,Humidity,HourlyPrecipIn,Conditions,Clouds,dailyrainin,SolarRadiationWatts/m^2,SoftwareType,DateUTC
2013-02-08 00:01:00,55.7,52.8,30.12,NW,320,17.7,17.7,90,0.00,CLR,,0.00,1.0,WeatherDisplay:10.37,2013-02-08 06:01:00,
2013-02-08 00:07:00,55.8,52.3,29.90,NW,318,23.0,23.0,88,0.00,CLR,,0.00,1.0,WeatherDisplay:10.37,2013-02-08 06:07:00,
2013-02-08 00:12:00,55.1,51.3,30.11,NW,316,25.3,25.3,87,0.00,CLR,,0.00,1.0,WeatherDisplay:10.37,2013-02-08 06:12:00,
2013-02-08 00:19:00,54.8,50.7,30.10,NNW,330,26.5,26.5,86,0.00,CLR,,0.00,1.0,WeatherDisplay:10.37,2013-02-08 06:19:00,
2013-02-08 00:24:00,54.5,50.4,30.13,NW,316,25.3,25.3,86,0.00,CLR,,0.00,1.0,WeatherDisplay:10.37,2013-02-08 06:24:00,
2013-02-08 00:29:00,54.1,49.7,30.12,NNW,334,21.9,21.9,85,0.00,CLR,,0.00,1.0,WeatherDisplay:10.37,2013-02-08 06:29:00,
2013-02-08 00:35:00,53.7,49.3,30.02,North,8,24.2,24.2,85,0.00,CLR,,0.00,2.0,WeatherDisplay:10.37,2013-02-08 06:35:00,
2013-02-08 00:40:00,53.5,49.1,30.11,North,352,15.0,26.0,85,0.00,CLR,,0.00,2.0,WeatherDisplay:10.37,2013-02-08 06:40:00,
2013-02-08 00:45:00,53.2,49.1,30.12,NNW,348,18.0,18.0,86,0.00,CLR,,0.00,1.0,WeatherDisplay:10.37,2013-02-08 06:45:00,
2013-02-08 00:50:00,52.9,48.5,30.09,NNW,346,13.0,24.0,85,0.00,CLR,,0.00,1.0,WeatherDisplay:10.37,2013-02-08 06:50:00,
2013-02-08 00:55:00,53.0,48.6,29.87,NNW,345,19.6,19.6,85,0.00,CLR,,0.00,1.0,WeatherDisplay:10.37,2013-02-08 06:55:00,
2013-02-08 01:00:00,53.4,49.3,29.82,NNW,327,14.7,14.7,86,0.00,CLR,,0.00,1.0,WeatherDisplay:10.37,2013-02-08 07:00:00,
2013-02-08 01:05:00,52.2,47.8,30.04,NNW,344,13.8,13.8,85,0.00,CLR,,0.00,2.0,WeatherDisplay:10.37,2013-02-08 07:05:00,
2013-02-08 01:11:00,52.7,48.6,29.84,North,351,15.0,15.0,86,0.00,CLR,,0.00,1.0,WeatherDisplay:10.37,2013-02-08 07:11:00,
2013-02-08 01:16:00,52.1,48.0,30.13,North,351,18.4,18.4,86,0.00,CLR,,0.00,1.0,WeatherDisplay:10.37,2013-02-08 07:16:00,
2013-02-08 01:21:00,52.8,49.0,29.84,NNW,331,11.5,11.5,87,0.00,CLR,,0.00,1.0,WeatherDisplay:10.37,2013-02-08 07:21:00,
2013-02-08 01:26:00,51.9,48.5,30.06,NNW,331,19.2,19.2,88,0.00,CLR,,0.00,2.0,WeatherDisplay:10.37,2013-02-08 07:26:00,
2013-02-08 01:32:00,51.8,49.0,30.14,NNW,331,16.1,16.1,90,0.00,CLR,,0.00,1.0,WeatherDisplay:10.37,2013-02-08 07:32:00,
2013-02-08 01:37:00,52.3,49.5,29.84,NNW,331,18.4,18.4,90,0.00,CLR,,0.00,1.0,WeatherDisplay:10.37,2013-02-08 07:37:00,
2013-02-08 01:42:00,51.5,49.0,30.07,NNW,344,18.4,18.4,91,0.00,CLR,,0.00,1.0,WeatherDisplay:10.37,2013-02-08 07:42:00,
2013-02-08 01:47:00,51.3,48.8,30.12,NNW,345,12.7,12.7,91,0.00,CLR,,0.00,2.0,WeatherDisplay:10.37,2013-02-08 07:47:00,
2013-02-08 01:53:00,51.3,48.8,30.14,NNW,336,20.7,20.7,91,0.00,CLR,,0.00,1.0,WeatherDisplay:10.37,2013-02-08 07:53:00,
2013-02-08 01:58:00,51.2,48.7,29.98,NNW,346,16.1,16.1,91,0.00,CLR,,0.00,1.0,WeatherDisplay:10.37,2013-02-08 07:58:00,
2013-02-08 02:03:00,51.1,48.6,29.94,NNW,333,19.6,19.6,91,0.00,CLR,,0.00,1.0,WeatherDisplay:10.37,2013-02-08 08:03:00,
2013-02-08 02:08:00,50.8,48.6,30.15,NNW,334,13.8,13.8,92,0.00,CLR,,0.00,2.0,WeatherDisplay:10.37,2013-02-08 08:08:00,
2013-02-08 02:13:00,50.9,48.7,29.99,NNW,330,16.1,16.1,92,0.00,CLR,,0.00,1.0,WeatherDisplay:10.37,2013-02-08 08:13:00,
2013-02-08 02:19:00,50.8,48.6,29.92,NW,321,17.3,17.3,92,0.00,CLR,,0.00,1.0,WeatherDisplay:10.37,2013-02-08 08:19:00,
2013-02-08 02:24:00,51.4,49.4,29.90,NNW,330,19.6,19.6,93,0.00,CLR,,0.00,1.0,WeatherDisplay:10.37,2013-02-08 08:24:00,
2013-02-08 02:29:00,50.5,48.3,29.99,NW,324,17.3,17.3,92,0.00,CLR,,0.00,1.0,WeatherDisplay:10.37,2013-02-08 08:29:00,
2013-02-08 02:34:00,50.4,48.2,30.04,NNW,335,16.8,16.8,92,0.00,CLR,,0.00,1.0,WeatherDisplay:10.37,2013-02-08 08:34:00,
2013-02-08 02:40:00,50.3,47.8,30.06,North,6,17.3,17.3,91,0.00,CLR,,0.00,2.0,WeatherDisplay:10.37,2013-02-08 08:40:00,
2013-02-08 02:45:00,50.3,47.8,30.08,NNW,343,15.0,20.0,91,0.00,CLR,,0.00,0.0,WeatherDisplay:10.37,2013-02-08 08:45:00,
2013-02-08 02:50:00,50.3,47.5,30.07,NNW,343,14.0,21.0,90,0.00,CLR,,0.00,1.0,WeatherDisplay:10.37,2013-02-08 08:50:00,
2013-02-08 02:55:00,50.1,47.3,29.98,NNW,342,14.0,20.0,90,0.00,CLR,,0.00,0.0,WeatherDisplay:10.37,2013-02-08 08:55:00,
2013-02-08 03:00:00,50.0,47.1,30.04,NNW,342,15.0,22.0,90,0.00,CLR,,0.00,0.0,WeatherDisplay:10.37,2013-02-08 09:00:00,
2013-02-08 03:05:00,49.8,47.0,30.04,NNW,339,14.0,22.0,90,0.00,CLR,,0.00,0.0,WeatherDisplay:10.37,2013-02-08 09:05:00,
2013-02-08 03:10:00,49.7,46.9,30.09,NNW,339,16.0,24.0,90,0.00,CLR,,0.00,0.0,WeatherDisplay:10.37,2013-02-08 09:10:00,
2013-02-08 03:15:00,49.6,46.8,30.05,NNW,341,14.0,20.0,90,0.00,CLR,,0.00,0.0,WeatherDisplay:10.37,2013-02-08 09:15:00,
2013-02-08 03:20:00,49.6,46.8,30.01,NNW,341,13.0,21.0,90,0.00,CLR,,0.00,1.0,WeatherDisplay:10.37,2013-02-08 09:20:00,
2013-02-08 03:25:00,50.4,47.9,29.75,NNW,335,21.9,21.9,91,0.00,CLR,,0.00,1.0,WeatherDisplay:10.37,2013-02-08 09:25:00,
2013-02-08 03:30:00,49.2,46.1,29.92,NW,326,18.4,18.4,89,0.00,CLR,,0.00,2.0,WeatherDisplay:10.37,2013-02-08 09:30:00,
2013-02-08 03:36:00,48.8,46.0,30.15,North,352,18.4,18.4,90,0.00,CLR,,0.00,2.0,WeatherDisplay:10.37,2013-02-08 09:36:00,
2013-02-08 03:41:00,48.7,45.9,29.99,NNW,348,14.7,14.7,90,0.00,CLR,,0.00,1.0,WeatherDisplay:10.37,2013-02-08 09:41:00,
2013-02-08 03:46:00,48.5,45.7,30.14,NNE,20,17.3,17.3,90,0.00,CLR,,0.00,1.0,WeatherDisplay:10.37,2013-02-08 09:46:00,
2013-02-08 03:51:00,48.3,45.5,30.11,NNW,336,18.4,18.4,90,0.00,CLR,,0.00,1.0,WeatherDisplay:10.37,2013-02-08 09:51:00,
2013-02-08 03:57:00,48.1,45.3,30.11,NNW,344,15.6,15.6,90,0.00,CLR,,0.00,1.0,WeatherDisplay:10.37,2013-02-08 09:57:00,
2013-02-08 04:02:00,48.1,45.3,30.02,NNW,340,13.8,13.8,90,0.00,CLR,,0.00,1.0,WeatherDisplay:10.37,2013-02-08 10:02:00,
2013-02-08 04:07:00,47.9,45.1,30.16,North,356,18.4,18.4,90,0.00,CLR,,0.00,1.0,WeatherDisplay:10.37,2013-02-08 10:07:00,
2013-02-08 04:12:00,47.8,45.0,30.10,NNE,15,12.7,12.7,90,0.00,CLR,,0.00,1.0,WeatherDisplay:10.37,2013-02-08 10:12:00,
2013-02-08 04:17:00,48.2,45.4,29.88,North,349,17.3,17.3,90,0.00,CLR,,0.00,1.0,WeatherDisplay:10.37,2013-02-08 10:17:00,
2013-02-08 04:23:00,48.3,45.8,29.87,NNW,346,12.7,12.7,91,0.00,CLR,,0.00,1.0,WeatherDisplay:10.37,2013-02-08 10:23:00,
2013-02-08 04:28:00,50.9,48.4,29.86,SW,232,10.8,10.8,91,0.00,CLR,,0.00,2.0,WeatherDisplay:10.37,2013-02-08 10:28:00,
2013-02-08 04:33:00,47.4,44.6,30.14,NNW,342,18.4,18.4,90,0.00,CLR,,0.00,1.0,WeatherDisplay:10.37,2013-02-08 10:33:00,
2013-02-08 04:38:00,47.4,44.3,30.08,NNW,338,16.1,16.1,89,0.00,CLR,,0.00,1.0,WeatherDisplay:10.37,2013-02-08 10:38:00,
2013-02-08 04:44:00,49.7,47.2,29.85,NNW,348,12.7,12.7,91,0.00,CLR,,0.00,1.0,WeatherDisplay:10.37,2013-02-08 10:44:00,
2013-02-08 04:49:00,47.2,44.1,30.15,NNE,20,14.4,14.4,89,0.00,CLR,,0.00,1.0,WeatherDisplay:10.37,2013-02-08 10:49:00,
2013-02-08 04:54:00,47.1,44.0,30.18,North,355,15.0,15.0,89,0.00,CLR,,0.00,1.0,WeatherDisplay:10.37,2013-02-08 10:54:00,
2013-02-08 04:59:00,50.3,47.8,29.71,NE,34,12.9,13.5,91,0.00,CLR,,0.00,2.0,WeatherDisplay:10.37,2013-02-08 10:59:00,
2013-02-08 05:05:00,47.1,43.7,30.04,NNE,15,12.7,12.7,88,0.00,CLR,,0.00,1.0,WeatherDisplay:10.37,2013-02-08 11:05:00,
2013-02-08 05:10:00,47.4,44.0,30.00,North,4,10.0,18.0,88,0.00,CLR,,0.00,1.0,WeatherDisplay:10.37,2013-02-08 11:10:00,
2013-02-08 05:15:00,46.8,43.4,30.11,NNW,333,18.4,18.4,88,0.00,CLR,,0.00,2.0,WeatherDisplay:10.37,2013-02-08 11:15:00,
2013-02-08 05:20:00,46.7,43.3,30.11,North,352,15.0,15.0,88,0.00,CLR,,0.00,2.0,WeatherDisplay:10.37,2013-02-08 11:20:00,
2013-02-08 05:25:00,46.6,43.2,30.17,North,353,16.1,16.1,88,0.00,CLR,,0.00,2.0,WeatherDisplay:10.37,2013-02-08 11:25:00,
2013-02-08 05:31:00,51.2,48.7,29.90,NNE,20,17.3,17.3,91,0.00,CLR,,0.00,2.0,WeatherDisplay:10.37,2013-02-08 11:31:00,
2013-02-08 05:36:00,46.4,43.3,30.02,NNE,24,11.5,11.5,89,0.00,CLR,,0.00,1.0,WeatherDisplay:10.37,2013-02-08 11:36:00,
2013-02-08 05:41:00,46.2,43.1,30.08,North,352,19.6,19.6,89,0.00,CLR,,0.00,1.0,WeatherDisplay:10.37,2013-02-08 11:41:00,
2013-02-08 05:46:00,48.4,46.2,29.88,North,355,13.8,13.8,92,0.00,CLR,,0.00,1.0,WeatherDisplay:10.37,2013-02-08 11:46:00,
2013-02-08 05:52:00,45.9,43.1,30.07,North,10,12.7,12.7,90,0.00,CLR,,0.00,1.0,WeatherDisplay:10.37,2013-02-08 11:52:00,
2013-02-08 05:57:00,45.7,42.9,30.05,NNW,341,11.5,11.5,90,0.00,CLR,,0.00,1.0,WeatherDisplay:10.37,2013-02-08 11:57:00,
2013-02-08 06:02:00,45.6,43.1,29.95,NNW,344,12.7,12.7,91,0.00,CLR,,0.00,1.0,WeatherDisplay:10.37,2013-02-08 12:02:00,
2013-02-08 06:07:00,46.0,43.5,29.94,ENE,72,15.3,15.3,91,0.00,CLR,,0.00,1.0,WeatherDisplay:10.37,2013-02-08 12:07:00,
2013-02-08 06:13:00,45.4,42.9,30.21,NW,317,15.0,15.0,91,0.00,CLR,,0.00,0.0,WeatherDisplay:10.37,2013-02-08 12:13:00,
2013-02-08 06:18:00,45.6,42.8,29.97,North,356,12.7,12.7,90,0.00,CLR,,0.00,1.0,WeatherDisplay:10.37,2013-02-08 12:18:00,
2013-02-08 06:23:00,45.2,42.4,30.18,North,353,15.9,15.9,90,0.00,CLR,,0.00,1.0,WeatherDisplay:10.37,2013-02-08 12:23:00,
2013-02-08 06:29:00,45.1,42.3,30.18,NNW,345,17.3,17.3,90,0.00,CLR,,0.00,1.0,WeatherDisplay:10.37,2013-02-08 12:29:00,
2013-02-08 06:34:00,45.0,42.2,30.07,NNW,345,13.8,13.8,90,0.00,CLR,,0.00,1.0,WeatherDisplay:10.37,2013-02-08 12:34:00,
2013-02-08 06:39:00,44.8,42.3,30.20,NW,323,16.1,16.1,91,0.00,CLR,,0.00,1.0,WeatherDisplay:10.37,2013-02-08 12:39:00,
2013-02-08 06:44:00,44.7,42.2,30.18,NNE,12,16.1,16.1,91,0.00,CLR,,0.00,1.0,WeatherDisplay:10.37,2013-02-08 12:44:00,
2013-02-08 06:49:00,44.6,42.1,30.20,North,351,13.8,13.8,91,0.00,CLR,,0.00,2.0,WeatherDisplay:10.37,2013-02-08 12:49:00,
2013-02-08 06:55:00,44.9,42.7,30.03,North,355,10.4,10.4,92,0.00,CLR,,0.00,2.0,WeatherDisplay:10.37,2013-02-08 12:55:00,
2013-02-08 07:00:00,45.3,43.4,30.04,NNW,346,13.0,16.0,93,0.00,OVC,,0.00,2.0,WeatherDisplay:10.37,2013-02-08 13:00:00,
2013-02-08 07:05:00,45.3,43.4,30.04,NNW,343,10.0,15.0,93,0.00,OVC,,0.00,3.0,WeatherDisplay:10.37,2013-02-08 13:05:00,
2013-02-08 07:10:00,44.5,42.3,30.03,NNW,344,9.0,16.0,92,0.00,OVC,,0.00,5.0,WeatherDisplay:10.37,2013-02-08 13:10:00,
2013-02-08 07:15:00,44.0,41.8,30.18,NNW,343,13.8,13.8,92,0.00,OVC,,0.00,8.0,WeatherDisplay:10.37,2013-02-08 13:15:00,
2013-02-08 07:20:00,46.3,44.7,29.91,NNW,331,11.5,11.5,94,0.00,OVC,,0.00,12.0,WeatherDisplay:10.37,2013-02-08 13:20:00,
2013-02-08 07:25:00,44.4,42.5,29.95,North,351,13.8,13.8,93,0.00,OVC,,0.00,16.0,WeatherDisplay:10.37,2013-02-08 13:25:00,
2013-02-08 07:31:00,43.6,41.7,30.12,NW,325,10.4,10.4,93,0.00,OVC,,0.00,20.0,WeatherDisplay:10.37,2013-02-08 13:31:00,
2013-02-08 07:36:00,45.1,44.0,29.94,North,351,11.5,11.5,96,0.00,OVC,,0.00,24.0,WeatherDisplay:10.37,2013-02-08 13:36:00,
2013-02-08 07:41:00,43.5,41.9,30.16,North,5,12.0,12.0,94,0.00,OVC,,0.00,27.0,WeatherDisplay:10.37,2013-02-08 13:41:00,
2013-02-08 07:47:00,43.4,42.1,30.25,NNW,346,12.7,12.7,95,0.00,OVC,,0.00,35.0,WeatherDisplay:10.37,2013-02-08 13:47:00,
2013-02-08 07:52:00,43.7,42.1,30.06,NNW,337,9.9,9.9,94,0.00,OVC,,0.00,34.0,WeatherDisplay:10.37,2013-02-08 13:52:00,
2013-02-08 07:57:00,43.5,42.2,30.25,NNE,13,10.4,10.4,95,0.00,OVC,,0.00,70.0,WeatherDisplay:10.37,2013-02-08 13:57:00,
2013-02-08 08:02:00,43.6,42.3,30.24,NNE,14,11.1,11.1,95,0.00,OVC,,0.00,235.0,WeatherDisplay:10.37,2013-02-08 14:02:00,
2013-02-08 08:08:00,44.7,43.6,29.95,NNE,12,13.8,13.8,96,0.00,OVC,,0.00,275.0,WeatherDisplay:10.37,2013-02-08 14:08:00,
2013-02-08 08:13:00,43.9,42.3,30.25,North,349,13.8,13.8,94,0.00,OVC,,0.00,295.0,WeatherDisplay:10.37,2013-02-08 14:13:00,
2013-02-08 08:18:00,44.2,42.3,30.25,NNE,21,15.0,15.0,93,0.00,OVC,,0.00,313.0,WeatherDisplay:10.37,2013-02-08 14:18:00,
2013-02-08 08:23:00,44.5,42.3,30.07,NNE,15,13.5,13.5,92,0.00,OVC,,0.00,330.0,WeatherDisplay:10.37,2013-02-08 14:23:00,
2013-02-08 08:29:00,44.7,42.2,30.16,WNW,292,17.3,17.3,91,0.00,OVC,,0.00,349.0,WeatherDisplay:10.37,2013-02-08 14:29:00,
2013-02-08 08:34:00,45.1,42.3,30.04,North,10,17.3,17.3,90,0.00,OVC,,0.00,365.0,WeatherDisplay:10.37,2013-02-08 14:34:00,
2013-02-08 08:39:00,45.6,43.1,29.92,North,5,19.6,19.6,91,0.00,OVC,,0.00,381.0,WeatherDisplay:10.37,2013-02-08 14:39:00,
2013-02-08 08:45:00,45.2,41.9,30.07,North,5,23.0,23.0,88,0.00,OVC,,0.00,401.0,WeatherDisplay:10.37,2013-02-08 14:45:00,
2013-02-08 08:50:00,45.5,42.2,30.10,NNE,12,17.3,17.3,88,0.00,OVC,,0.00,416.0,WeatherDisplay:10.37,2013-02-08 14:50:00,
2013-02-08 08:55:00,45.8,42.2,30.06,NNE,16,16.0,22.0,87,0.00,OVC,,0.00,431.0,WeatherDisplay:10.37,2013-02-08 14:55:00,
2013-02-08 09:00:00,45.9,41.9,30.22,NNE,20,23.0,23.0,86,0.00,OVC,,0.00,443.0,WeatherDisplay:10.37,2013-02-08 15:00:00,
2013-02-08 09:05:00,50.7,47.3,29.96,NNE,17,18.4,18.4,88,0.00,OVC,,0.00,466.0,WeatherDisplay:10.37,2013-02-08 15:05:00,
2013-02-08 09:11:00,46.6,41.7,30.25,NNE,21,19.6,19.6,83,0.00,OVC,,0.00,476.0,WeatherDisplay:10.37,2013-02-08 15:11:00,
2013-02-08 09:16:00,48.4,44.1,29.93,NNE,28,17.3,17.3,85,0.00,OVC,,0.00,493.0,WeatherDisplay:10.37,2013-02-08 15:16:00,
2013-02-08 09:21:00,47.2,42.0,30.25,NNE,15,23.1,23.1,82,0.00,OVC,,0.00,506.0,WeatherDisplay:10.37,2013-02-08 15:21:00,
2013-02-08 09:26:00,48.4,43.2,30.05,NNW,348,16.1,16.1,82,0.00,OVC,,0.00,519.0,WeatherDisplay:10.37,2013-02-08 15:26:00,
2013-02-08 09:32:00,49.3,43.7,29.93,North,354,16.1,16.1,81,0.00,OVC,,0.00,534.0,WeatherDisplay:10.37,2013-02-08 15:32:00,
2013-02-08 09:37:00,49.1,42.5,29.98,NE,55,15.0,15.0,78,0.00,OVC,,0.00,540.0,WeatherDisplay:10.37,2013-02-08 15:37:00,
2013-02-08 09:42:00,48.9,41.7,29.99,NNE,16,20.7,20.7,76,0.00,OVC,,0.00,559.0,WeatherDisplay:10.37,2013-02-08 15:42:00,
2013-02-08 09:48:00,48.4,40.8,30.26,NNE,15,19.6,19.6,75,0.00,OVC,,0.00,568.0,WeatherDisplay:10.37,2013-02-08 15:48:00,
2013-02-08 09:53:00,49.4,41.8,30.04,NNE,17,16.8,16.8,75,0.00,OVC,,0.00,582.0,WeatherDisplay:10.37,2013-02-08 15:53:00,
2013-02-08 09:58:00,49.9,42.3,30.01,NNE,17,15.0,15.0,75,0.00,OVC,,0.00,593.0,WeatherDisplay:10.37,2013-02-08 15:58:00,
2013-02-08 10:04:00,49.9,41.9,30.27,North,354,13.8,13.8,74,0.00,OVC,,0.00,606.0,WeatherDisplay:10.37,2013-02-08 16:04:00,
2013-02-08 10:09:00,51.0,42.3,30.21,NNE,13,15.0,15.0,72,0.00,OVC,,0.00,613.0,WeatherDisplay:10.37,2013-02-08 16:09:00,
2013-02-08 10:14:00,51.0,41.6,30.27,NE,42,17.3,17.3,70,0.00,OVC,,0.00,626.0,WeatherDisplay:10.37,2013-02-08 16:14:00,
2013-02-08 10:19:00,51.5,42.4,30.20,NNW,348,16.1,16.1,71,0.00,OVC,,0.00,633.0,WeatherDisplay:10.37,2013-02-08 16:19:00,
2013-02-08 10:25:00,52.0,41.4,30.27,NNE,33,17.3,17.3,67,0.00,OVC,,0.00,643.0,WeatherDisplay:10.37,2013-02-08 16:25:00,
2013-02-08 10:30:00,52.7,42.4,30.11,NNE,30,9.0,20.0,68,0.00,OVC,,0.00,654.0,WeatherDisplay:10.37,2013-02-08 16:30:00,
2013-02-08 10:35:00,52.8,41.4,30.10,NNE,30,18.9,18.9,65,0.00,OVC,,0.00,661.0,WeatherDisplay:10.37,2013-02-08 16:35:00,
2013-02-08 10:40:00,53.0,40.3,30.07,NNE,31,20.7,20.7,62,0.00,OVC,,0.00,669.0,WeatherDisplay:10.37,2013-02-08 16:40:00,
2013-02-08 10:45:00,53.7,41.8,29.97,NNE,29,16.1,16.1,64,0.00,OVC,,0.00,682.0,WeatherDisplay:10.37,2013-02-08 16:45:00,
2013-02-08 10:51:00,54.0,40.8,30.11,ENE,65,16.1,16.1,61,0.00,OVC,,0.00,686.0,WeatherDisplay:10.37,2013-02-08 16:51:00,
2013-02-08 10:56:00,53.6,40.5,30.24,NNE,21,18.4,18.4,61,0.00,OVC,,0.00,696.0,WeatherDisplay:10.37,2013-02-08 16:56:00,
2013-02-08 11:01:00,57.1,43.3,30.05,NNE,19,19.6,19.6,60,0.00,OVC,,0.00,705.0,WeatherDisplay:10.37,2013-02-08 17:01:00,
2013-02-08 11:06:00,59.5,46.5,29.96,NNE,20,13.8,13.8,62,0.00,OVC,,0.00,716.0,WeatherDisplay:10.37,2013-02-08 17:06:00,
2013-02-08 11:11:00,55.1,40.6,30.07,NE,39,15.0,15.0,58,0.00,OVC,,0.00,717.0,WeatherDisplay:10.37,2013-02-08 17:11:00,
2013-02-08 11:17:00,55.9,40.9,29.99,NE,52,18.9,18.9,57,0.00,OVC,,0.00,721.0,WeatherDisplay:10.37,2013-02-08 17:17:00,
2013-02-08 11:22:00,58.6,43.4,29.93,NE,36,21.9,21.9,57,0.00,OVC,,0.00,728.0,WeatherDisplay:10.37,2013-02-08 17:22:00,
2013-02-08 11:27:00,55.8,38.9,30.03,NE,34,19.6,19.6,53,0.00,OVC,,0.00,731.0,WeatherDisplay:10.37,2013-02-08 17:27:00,
2013-02-08 11:32:00,55.9,40.4,30.23,NNE,12,15.0,15.0,56,0.00,OVC,,0.00,734.0,WeatherDisplay:10.37,2013-02-08 17:32:00,
2013-02-08 11:37:00,56.4,40.4,30.01,NNE,21,21.9,21.9,55,0.00,OVC,,0.00,735.0,WeatherDisplay:10.37,2013-02-08 17:37:00,
2013-02-08 11:43:00,57.4,39.9,29.91,NE,38,19.6,19.6,52,0.00,OVC,,0.00,750.0,WeatherDisplay:10.37,2013-02-08 17:43:00,
2013-02-08 11:48:00,57.2,39.7,30.19,NNE,26,23.0,23.0,52,0.00,OVC,,0.00,669.0,WeatherDisplay:10.37,2013-02-08 17:48:00,
2013-02-08 11:53:00,58.9,41.8,29.92,East,79,12.7,12.7,53,0.00,OVC,,0.00,784.0,WeatherDisplay:10.37,2013-02-08 17:53:00,
2013-02-08 11:58:00,58.6,40.5,30.20,NE,54,15.0,15.0,51,0.00,OVC,,0.00,787.0,WeatherDisplay:10.37,2013-02-08 17:58:00,
2013-02-08 12:04:00,58.8,41.2,30.11,North,10,11.5,11.5,52,0.00,OVC,,0.00,809.0,WeatherDisplay:10.37,2013-02-08 18:04:00,
2013-02-08 12:09:00,58.7,39.6,30.25,East,92,16.1,16.1,49,0.00,OVC,,0.00,819.0,WeatherDisplay:10.37,2013-02-08 18:09:00,
2013-02-08 12:14:00,59.2,40.0,30.25,NNE,28,11.1,11.1,49,0.00,OVC,,0.00,781.0,WeatherDisplay:10.37,2013-02-08 18:14:00,
2013-02-08 12:20:00,58.5,40.4,30.10,NNE,21,17.3,17.3,51,0.00,OVC,,0.00,763.0,WeatherDisplay:10.37,2013-02-08 18:20:00,
2013-02-08 12:25:00,59.1,40.5,30.25,NE,46,17.3,17.3,50,0.00,OVC,,0.00,753.0,WeatherDisplay:10.37,2013-02-08 18:25:00,
2013-02-08 12:30:00,59.4,40.3,30.24,NE,55,6.0,17.0,49,0.00,OVC,,0.00,752.0,WeatherDisplay:10.37,2013-02-08 18:30:00,
2013-02-08 12:35:00,59.9,39.6,30.23,ENE,71,6.0,16.0,47,0.00,OVC,,0.00,750.0,WeatherDisplay:10.37,2013-02-08 18:35:00,
2013-02-08 12:40:00,60.0,39.1,30.22,East,89,11.5,11.5,46,0.00,OVC,,0.00,752.0,WeatherDisplay:10.37,2013-02-08 18:40:00,
2013-02-08 12:45:00,59.6,38.8,30.23,East,80,15.0,15.0,46,0.00,OVC,,0.00,746.0,WeatherDisplay:10.37,2013-02-08 18:45:00,
2013-02-08 12:50:00,59.4,40.2,30.19,ENE,72,10.4,10.4,49,0.00,OVC,,0.00,748.0,WeatherDisplay:10.37,2013-02-08 18:50:00,
2013-02-08 12:55:00,59.5,39.8,30.23,East,93,16.1,16.1,48,0.00,OVC,,0.00,748.0,WeatherDisplay:10.37,2013-02-08 18:55:00,
2013-02-08 13:01:00,60.0,39.7,30.08,NE,40,15.0,15.0,47,0.00,OVC,,0.00,740.0,WeatherDisplay:10.37,2013-02-08 19:01:00,
2013-02-08 13:06:00,59.6,39.9,30.23,ESE,108,12.7,12.7,48,0.00,OVC,,0.00,735.0,WeatherDisplay:10.37,2013-02-08 19:06:00,
2013-02-08 13:11:00,60.4,39.5,30.22,ENE,73,10.2,10.2,46,0.00,OVC,,0.00,721.0,WeatherDisplay:10.37,2013-02-08 19:11:00,
2013-02-08 13:16:00,60.5,39.0,30.22,ENE,76,11.5,11.5,45,0.00,CLR,,0.00,736.0,WeatherDisplay:10.37,2013-02-08 19:16:00,
2013-02-08 13:22:00,60.8,39.9,30.13,ESE,111,15.0,15.0,46,0.00,CLR,,0.00,730.0,WeatherDisplay:10.37,2013-02-08 19:22:00,
2013-02-08 13:27:00,60.7,39.2,30.15,East,79,16.1,16.1,45,0.00,CLR,,0.00,725.0,WeatherDisplay:10.37,2013-02-08 19:27:00,
2013-02-08 13:32:00,61.3,41.4,30.20,ESE,102,11.1,11.1,48,0.00,CLR,,0.00,642.0,WeatherDisplay:10.37,2013-02-08 19:32:00,
2013-02-08 13:37:00,61.1,39.0,30.20,East,88,16.1,16.1,44,0.00,CLR,,0.00,706.0,WeatherDisplay:10.37,2013-02-08 19:37:00,
2013-02-08 13:42:00,61.4,39.9,30.17,East,94,11.5,11.5,45,0.00,CLR,,0.00,696.0,WeatherDisplay:10.37,2013-02-08 19:42:00,
2013-02-08 13:48:00,62.6,40.4,30.19,ENE,66,11.5,11.5,44,0.00,CLR,,0.00,686.0,WeatherDisplay:10.37,2013-02-08 19:48:00,
2013-02-08 13:53:00,61.1,38.4,30.07,NE,49,10.4,10.4,43,0.00,CLR,,0.00,680.0,WeatherDisplay:10.37,2013-02-08 19:53:00,
2013-02-08 13:58:00,61.7,40.1,30.20,NE,52,10.2,10.2,45,0.00,CLR,,0.00,677.0,WeatherDisplay:10.37,2013-02-08 19:58:00,
2013-02-08 14:03:00,61.5,39.9,29.98,NE,55,13.5,13.5,45,0.00,CLR,,0.00,665.0,WeatherDisplay:10.37,2013-02-08 20:03:00,
2013-02-08 14:09:00,61.7,39.6,30.19,NNE,26,15.0,15.0,44,0.00,CLR,,0.00,641.0,WeatherDisplay:10.37,2013-02-08 20:09:00,
2013-02-08 14:14:00,61.4,39.3,30.03,ENE,68,15.0,15.0,44,0.00,CLR,,0.00,639.0,WeatherDisplay:10.37,2013-02-08 20:14:00,
2013-02-08 14:19:00,61.6,40.0,30.19,ENE,71,11.5,11.5,45,0.00,CLR,,0.00,623.0,WeatherDisplay:10.37,2013-02-08 20:19:00,
2013-02-08 14:24:00,62.2,39.4,30.18,East,80,15.0,15.0,43,0.00,CLR,,0.00,629.0,WeatherDisplay:10.37,2013-02-08 20:24:00,
2013-02-08 14:29:00,62.7,39.9,30.18,ENE,75,11.5,11.5,43,0.00,CLR,,0.00,608.0,WeatherDisplay:10.37,2013-02-08 20:29:00,
2013-02-08 14:35:00,62.7,37.4,30.19,SE,134,15.0,15.0,39,0.00,CLR,,0.00,603.0,WeatherDisplay:10.37,2013-02-08 20:35:00,
2013-02-08 14:40:00,62.7,38.0,30.16,ESE,105,8.0,17.0,40,0.00,CLR,,0.00,581.0,WeatherDisplay:10.37,2013-02-08 20:40:00,
2013-02-08 14:45:00,62.4,35.8,30.18,East,80,11.5,11.5,37,0.00,CLR,,0.00,514.0,WeatherDisplay:10.37,2013-02-08 20:45:00,
2013-02-08 14:50:00,62.4,37.1,30.18,East,95,10.4,10.4,39,0.00,CLR,,0.00,489.0,WeatherDisplay:10.37,2013-02-08 20:50:00,
2013-02-08 14:55:00,63.0,37.6,29.96,ESE,114,15.3,15.3,39,0.00,CLR,,0.00,491.0,WeatherDisplay:10.37,2013-02-08 20:55:00,
2013-02-08 15:01:00,63.0,37.0,29.95,ESE,111,10.4,10.4,38,0.00,CLR,,0.00,433.0,WeatherDisplay:10.37,2013-02-08 21:01:00,
2013-02-08 15:06:00,64.8,39.9,29.83,East,86,11.5,11.5,40,0.00,CLR,,0.00,397.0,WeatherDisplay:10.37,2013-02-08 21:06:00,
2013-02-08 15:11:00,61.7,36.5,30.08,East,80,8.1,8.1,39,0.00,CLR,,0.00,368.0,WeatherDisplay:10.37,2013-02-08 21:11:00,
2013-02-08 15:16:00,62.0,36.1,29.99,ENE,66,11.5,11.5,38,0.00,CLR,,0.00,527.0,WeatherDisplay:10.37,2013-02-08 21:16:00,
2013-02-08 15:22:00,62.3,38.3,30.15,East,89,10.4,10.4,41,0.00,CLR,,0.00,505.0,WeatherDisplay:10.37,2013-02-08 21:22:00,
2013-02-08 15:27:00,62.0,38.0,30.18,East,90,6.6,6.6,41,0.00,CLR,,0.00,492.0,WeatherDisplay:10.37,2013-02-08 21:27:00,
2013-02-08 15:32:00,62.3,38.3,30.07,ENE,70,10.4,10.4,41,0.00,CLR,,0.00,479.0,WeatherDisplay:10.37,2013-02-08 21:32:00,
2013-02-08 15:37:00,62.1,38.7,30.13,ENE,59,8.1,8.1,42,0.00,CLR,,0.00,457.0,WeatherDisplay:10.37,2013-02-08 21:37:00,
2013-02-08 15:43:00,62.2,37.6,30.17,East,82,4.6,4.6,40,0.00,CLR,,0.00,451.0,WeatherDisplay:10.37,2013-02-08 21:43:00,
2013-02-08 15:48:00,62.4,40.2,30.01,ENE,74,10.5,10.5,44,0.00,CLR,,0.00,440.0,WeatherDisplay:10.37,2013-02-08 21:48:00,
2013-02-08 15:53:00,62.5,40.3,30.17,East,93,6.9,6.9,44,0.00,CLR,,0.00,430.0,WeatherDisplay:10.37,2013-02-08 21:53:00,
2013-02-08 15:59:00,63.1,40.8,30.17,SSE,158,2.4,2.4,44,0.00,FEW,,0.00,413.0,WeatherDisplay:10.37,2013-02-08 21:59:00,
2013-02-08 16:04:00,62.3,39.5,30.10,East,94,11.5,11.5,43,0.00,FEW,,0.00,401.0,WeatherDisplay:10.37,2013-02-08 22:04:00,
2013-02-08 16:09:00,62.0,38.6,30.15,ESE,105,11.5,11.5,42,0.00,FEW,,0.00,384.0,WeatherDisplay:10.37,2013-02-08 22:09:00,
2013-02-08 16:14:00,62.3,38.3,30.17,East,85,10.4,10.4,41,0.00,SCT,,0.00,365.0,WeatherDisplay:10.37,2013-02-08 22:14:00,
2013-02-08 16:20:00,62.2,38.2,30.16,East,101,8.0,10.0,41,0.00,SCT,,0.00,351.0,WeatherDisplay:10.37,2013-02-08 22:20:00,
2013-02-08 16:25:00,62.3,38.9,30.14,ESE,119,5.0,10.0,42,0.00,SCT,,0.00,339.0,WeatherDisplay:10.37,2013-02-08 22:25:00,
2013-02-08 16:30:00,62.7,39.3,30.15,SE,135,3.0,11.0,42,0.00,SCT,,0.00,327.0,WeatherDisplay:10.37,2013-02-08 22:30:00,
2013-02-08 16:35:00,62.3,38.9,30.04,SE,129,8.1,8.1,42,0.00,SCT,,0.00,311.0,WeatherDisplay:10.37,2013-02-08 22:35:00,
2013-02-08 16:40:00,62.0,38.6,30.16,SSE,152,11.5,11.5,42,0.00,BKN,,0.00,265.0,WeatherDisplay:10.37,2013-02-08 22:40:00,
2013-02-08 16:45:00,61.8,37.8,30.16,SE,126,5.8,5.8,41,0.00,BKN,,0.00,264.0,WeatherDisplay:10.37,2013-02-08 22:45:00,
2013-02-08 16:51:00,61.9,37.9,30.09,SE,127,11.5,11.5,41,0.00,BKN,,0.00,233.0,WeatherDisplay:10.37,2013-02-08 22:51:00,
2013-02-08 16:56:00,61.3,36.8,30.10,ESE,122,9.2,9.2,40,0.00,OVC,,0.00,201.0,WeatherDisplay:10.37,2013-02-08 22:56:00,
2013-02-08 17:01:00,60.9,37.6,30.17,ESE,106,9.2,9.2,42,0.00,OVC,,0.00,155.0,WeatherDisplay:10.37,2013-02-08 23:01:00,
2013-02-08 17:06:00,60.7,38.1,30.17,East,93,8.1,8.1,43,0.00,OVC,,0.00,204.0,WeatherDisplay:10.37,2013-02-08 23:06:00,
2013-02-08 17:12:00,60.7,38.1,30.17,ESE,110,9.2,9.2,43,0.00,OVC,,0.00,120.0,WeatherDisplay:10.37,2013-02-08 23:12:00,
2013-02-08 17:17:00,60.3,38.3,30.17,East,95,8.1,8.1,44,0.00,OVC,,0.00,83.0,WeatherDisplay:10.37,2013-02-08 23:17:00,
2013-02-08 17:22:00,59.7,38.9,30.17,East,93,8.1,8.1,46,0.00,OVC,,0.00,72.0,WeatherDisplay:10.37,2013-02-08 23:22:00,
2013-02-08 17:28:00,59.3,38.5,30.17,SE,124,8.1,8.1,46,0.00,OVC,,0.00,69.0,WeatherDisplay:10.37,2013-02-08 23:28:00,
2013-02-08 17:33:00,59.0,38.8,30.17,ESE,123,5.8,5.8,47,0.00,OVC,,0.00,60.0,WeatherDisplay:10.37,2013-02-08 23:33:00,
2013-02-08 17:38:00,58.4,39.3,30.17,ESE,105,5.8,5.8,49,0.00,OVC,,0.00,44.0,WeatherDisplay:10.37,2013-02-08 23:38:00,
2013-02-08 17:43:00,58.2,39.6,30.17,ESE,123,5.8,5.8,50,0.00,OVC,,0.00,36.0,WeatherDisplay:10.37,2013-02-08 23:43:00,
2013-02-08 17:49:00,58.1,39.0,30.18,East,94,8.1,8.1,49,0.00,OVC,,0.00,28.0,WeatherDisplay:10.37,2013-02-08 23:49:00,
2013-02-08 17:54:00,58.4,39.3,29.88,East,96,6.0,6.0,49,0.00,OVC,,0.00,27.0,WeatherDisplay:10.37,2013-02-08 23:54:00,
2013-02-08 17:59:00,57.3,38.3,30.18,ESE,107,4.8,5.0,49,0.00,OVC,,0.00,33.0,WeatherDisplay:10.37,2013-02-08 23:59:00,
2013-02-08 18:04:00,57.1,38.1,30.18,East,98,4.6,4.8,49,0.00,OVC,,0.00,10.0,WeatherDisplay:10.37,2013-02-09 00:04:00,
2013-02-08 18:09:00,57.0,38.5,30.07,East,93,5.8,5.8,50,0.00,OVC,,0.00,10.0,WeatherDisplay:10.37,2013-02-09 00:09:00,
2013-02-08 18:15:00,57.0,38.5,30.15,East,92,6.0,7.0,50,0.00,OVC,,0.00,6.0,WeatherDisplay:10.37,2013-02-09 00:15:00,
2013-02-08 18:20:00,56.7,38.7,30.12,East,83,5.0,7.0,51,0.00,OVC,,0.00,2.0,WeatherDisplay:10.37,2013-02-09 00:20:00,
2013-02-08 18:25:00,56.2,38.3,30.10,ENE,70,5.8,5.8,51,0.00,OVC,,0.00,2.0,WeatherDisplay:10.37,2013-02-09 00:25:00,
2013-02-08 18:30:00,57.1,40.1,29.86,ENE,64,5.8,5.8,53,0.00,OVC,,0.00,1.0,WeatherDisplay:10.37,2013-02-09 00:30:00,
2013-02-08 18:35:00,56.4,40.0,29.87,ENE,66,8.1,8.1,54,0.00,OVC,,0.00,1.0,WeatherDisplay:10.37,2013-02-09 00:35:00,
2013-02-08 18:41:00,55.7,39.3,30.12,ENE,68,6.9,6.9,54,0.00,CLR,,0.00,1.0,WeatherDisplay:10.37,2013-02-09 00:41:00,
2013-02-08 18:46:00,55.2,39.3,30.09,ENE,72,6.9,6.9,55,0.00,CLR,,0.00,1.0,WeatherDisplay:10.37,2013-02-09 00:46:00,
2013-02-08 18:51:00,55.0,39.6,29.97,ENE,76,5.8,5.8,56,0.00,CLR,,0.00,1.0,WeatherDisplay:10.37,2013-02-09 00:51:00,
2013-02-08 18:56:00,54.5,39.6,30.11,ENE,71,5.8,5.8,57,0.00,CLR,,0.00,1.0,WeatherDisplay:10.37,2013-02-09 00:56:00,
2013-02-08 19:02:00,54.7,39.8,29.93,ENE,72,5.8,5.8,57,0.00,CLR,,0.00,1.0,WeatherDisplay:10.37,2013-02-09 01:02:00,
2013-02-08 19:07:00,54.5,39.6,30.16,ENE,73,6.9,6.9,57,0.00,CLR,,0.00,1.0,WeatherDisplay:10.37,2013-02-09 01:07:00,
2013-02-08 19:12:00,54.1,39.6,30.00,ENE,69,6.9,6.9,58,0.00,CLR,,0.00,1.0,WeatherDisplay:10.37,2013-02-09 01:12:00,
2013-02-08 19:18:00,57.2,43.9,29.92,East,84,6.9,6.9,61,0.00,CLR,,0.00,1.0,WeatherDisplay:10.37,2013-02-09 01:18:00,
2013-02-08 19:23:00,55.4,42.2,29.82,ENE,62,6.9,6.9,61,0.00,CLR,,0.00,1.0,WeatherDisplay:10.37,2013-02-09 01:23:00,
2013-02-08 19:28:00,53.4,39.9,30.07,ENE,70,6.9,6.9,60,0.00,CLR,,0.00,1.0,WeatherDisplay:10.37,2013-02-09 01:28:00,
2013-02-08 19:33:00,53.4,39.9,30.16,ENE,73,6.9,6.9,60,0.00,CLR,,0.00,1.0,WeatherDisplay:10.37,2013-02-09 01:33:00,
2013-02-08 19:38:00,53.3,39.8,30.09,ENE,70,6.9,6.9,60,0.00,CLR,,0.00,1.0,WeatherDisplay:10.37,2013-02-09 01:38:00,
2013-02-08 19:44:00,53.5,40.4,29.90,ENE,68,6.9,6.9,61,0.00,CLR,,0.00,1.0,WeatherDisplay:10.37,2013-02-09 01:44:00,
2013-02-08 19:49:00,53.0,39.9,30.17,ENE,73,6.9,6.9,61,0.00,CLR,,0.00,1.0,WeatherDisplay:10.37,2013-02-09 01:49:00,
2013-02-08 19:54:00,53.4,41.1,29.81,ENE,73,6.9,6.9,63,0.00,CLR,,0.00,1.0,WeatherDisplay:10.37,2013-02-09 01:54:00,
2013-02-08 20:00:00,52.8,40.1,29.95,ENE,70,6.0,7.0,62,0.00,CLR,,0.00,0.0,WeatherDisplay:10.37,2013-02-09 02:00:00,
2013-02-08 20:05:00,52.6,39.9,29.92,ENE,70,6.9,6.9,62,0.00,CLR,,0.00,1.0,WeatherDisplay:10.37,2013-02-09 02:05:00,
2013-02-08 20:10:00,52.4,39.7,30.11,ENE,70,6.0,7.0,62,0.00,CLR,,0.00,0.0,WeatherDisplay:10.37,2013-02-09 02:10:00,
2013-02-08 20:15:00,52.3,39.7,30.17,ENE,68,5.8,5.8,62,0.00,CLR,,0.00,1.0,WeatherDisplay:10.37,2013-02-09 02:15:00,
2013-02-08 20:20:00,52.3,39.7,30.16,ENE,75,5.8,5.8,62,0.00,CLR,,0.00,1.0,WeatherDisplay:10.37,2013-02-09 02:20:00,
2013-02-08 20:25:00,52.2,40.0,30.05,East,79,5.8,5.8,63,0.00,CLR,,0.00,1.0,WeatherDisplay:10.37,2013-02-09 02:25:00,
2013-02-08 20:31:00,52.2,40.0,29.93,East,82,5.8,5.8,63,0.00,CLR,,0.00,0.0,WeatherDisplay:10.37,2013-02-09 02:31:00,
2013-02-08 20:36:00,52.0,39.8,30.16,East,87,5.8,5.8,63,0.00,CLR,,0.00,1.0,WeatherDisplay:10.37,2013-02-09 02:36:00,
2013-02-08 20:41:00,51.7,39.9,30.17,East,86,6.9,6.9,64,0.00,CLR,,0.00,1.0,WeatherDisplay:10.37,2013-02-09 02:41:00,
2013-02-08 20:46:00,52.1,40.3,29.89,East,85,6.9,6.9,64,0.00,CLR,,0.00,1.0,WeatherDisplay:10.37,2013-02-09 02:46:00,
2013-02-08 20:52:00,51.5,39.7,30.15,ENE,77,9.2,9.2,64,0.00,CLR,,0.00,1.0,WeatherDisplay:10.37,2013-02-09 02:52:00,
2013-02-08 20:57:00,51.4,39.6,30.15,East,80,9.2,9.2,64,0.00,CLR,,0.00,1.0,WeatherDisplay:10.37,2013-02-09 02:57:00,
2013-02-08 21:02:00,51.6,39.8,30.16,East,82,9.2,9.2,64,0.00,CLR,,0.00,1.0,WeatherDisplay:10.37,2013-02-09 03:02:00,
2013-02-08 21:08:00,63.6,52.8,30.08,East,86,9.2,9.2,68,0.00,CLR,,0.00,1.0,WeatherDisplay:10.37,2013-02-09 03:08:00,
2013-02-08 21:13:00,51.2,39.4,30.11,East,84,10.4,10.4,64,0.00,CLR,,0.00,1.0,WeatherDisplay:10.37,2013-02-09 03:13:00,
2013-02-08 21:18:00,50.8,39.5,30.09,East,80,8.1,8.1,65,0.00,CLR,,0.00,1.0,WeatherDisplay:10.37,2013-02-09 03:18:00,
2013-02-08 21:23:00,51.1,39.7,29.99,East,89,9.2,9.2,65,0.00,CLR,,0.00,1.0,WeatherDisplay:10.37,2013-02-09 03:23:00,
2013-02-08 21:29:00,50.7,39.7,30.16,ENE,75,8.1,8.2,66,0.00,CLR,,0.00,1.0,WeatherDisplay:10.37,2013-02-09 03:29:00,
2013-02-08 21:34:00,54.4,44.1,29.84,East,96,10.4,10.4,68,0.00,CLR,,0.00,1.0,WeatherDisplay:10.37,2013-02-09 03:34:00,
2013-02-08 21:39:00,50.8,39.8,29.94,East,91,10.5,10.5,66,0.00,CLR,,0.00,1.0,WeatherDisplay:10.37,2013-02-09 03:39:00,
2013-02-08 21:44:00,51.0,40.8,29.88,East,93,9.3,9.3,68,0.00,CLR,,0.00,1.0,WeatherDisplay:10.37,2013-02-09 03:44:00,
2013-02-08 21:50:00,49.6,39.8,30.09,East,98,9.6,9.6,69,0.00,CLR,,0.00,1.0,WeatherDisplay:10.37,2013-02-09 03:50:00,
2013-02-08 21:55:00,49.7,40.7,29.97,East,95,8.0,10.0,71,0.00,CLR,,0.00,0.0,WeatherDisplay:10.37,2013-02-09 03:55:00,
2013-02-08 22:00:00,49.0,40.3,30.08,East,94,9.0,12.0,72,0.00,CLR,,0.00,0.0,WeatherDisplay:10.37,2013-02-09 04:00:00,
2013-02-08 22:05:00,49.0,40.7,30.06,East,94,9.0,10.0,73,0.00,CLR,,0.00,0.0,WeatherDisplay:10.37,2013-02-09 04:05:00,
2013-02-08 22:10:00,49.2,40.9,30.17,East,92,11.5,11.5,73,0.00,CLR,,0.00,1.0,WeatherDisplay:10.37,2013-02-09 04:10:00,
2013-02-08 22:15:00,49.0,40.7,30.14,East,95,8.0,10.0,73,0.00,CLR,,0.00,0.0,WeatherDisplay:10.37,2013-02-09 04:15:00,
2013-02-08 22:20:00,49.0,40.7,30.09,East,97,9.0,12.0,73,0.00,CLR,,0.00,0.0,WeatherDisplay:10.37,2013-02-09 04:20:00,
2013-02-08 22:25:00,49.0,41.1,30.09,East,94,9.2,9.2,74,0.00,CLR,,0.00,1.0,WeatherDisplay:10.37,2013-02-09 04:25:00,
2013-02-08 22:30:00,48.9,41.0,30.15,ESE,102,8.1,8.1,74,0.00,CLR,,0.00,1.0,WeatherDisplay:10.37,2013-02-09 04:30:00,
2013-02-08 22:36:00,48.6,40.7,30.04,ESE,106,7.2,7.2,74,0.00,CLR,,0.00,1.0,WeatherDisplay:10.37,2013-02-09 04:36:00,
2013-02-08 22:41:00,48.2,40.6,30.14,ESE,103,6.9,6.9,75,0.00,CLR,,0.00,1.0,WeatherDisplay:10.37,2013-02-09 04:41:00,
2013-02-08 22:46:00,47.9,40.7,30.18,East,98,6.9,6.9,76,0.00,CLR,,0.00,1.0,WeatherDisplay:10.37,2013-02-09 04:46:00,
2013-02-08 22:51:00,48.1,41.2,30.01,East,87,9.2,9.2,77,0.00,CLR,,0.00,1.0,WeatherDisplay:10.37,2013-02-09 04:51:00,
2013-02-08 22:57:00,48.2,41.3,30.12,East,93,9.2,9.2,77,0.00,CLR,,0.00,1.0,WeatherDisplay:10.37,2013-02-09 04:57:00,
2013-02-08 23:00:00,48.3,41.1,30.09,East,86,11.5,11.5,76,0.00,CLR,,0.00,1.0,WeatherDisplay:10.37,2013-02-09 05:00:00,
2013-02-08 23:02:00,48.1,41.2,30.14,East,101,11.5,11.5,77,0.00,CLR,,0.00,1.0,WeatherDisplay:10.37,2013-02-09 05:02:00,
2013-02-08 23:06:00,49.6,43.7,29.84,East,83,11.5,11.5,80,0.00,CLR,,0.00,1.0,WeatherDisplay:10.37,2013-02-09 05:06:00,
2013-02-08 23:12:00,47.4,41.2,30.14,East,100,13.8,13.8,79,0.00,CLR,,0.00,1.0,WeatherDisplay:10.37,2013-02-09 05:12:00,
2013-02-08 23:17:00,47.5,41.3,30.02,ESE,110,11.5,11.5,79,0.00,CLR,,0.00,1.0,WeatherDisplay:10.37,2013-02-09 05:17:00,
2013-02-08 23:22:00,47.5,41.3,30.16,East,86,12.7,12.7,79,0.00,CLR,,0.00,1.0,WeatherDisplay:10.37,2013-02-09 05:22:00,
2013-02-08 23:27:00,49.5,43.9,29.83,ESE,120,10.4,10.4,81,0.00,CLR,,0.00,1.0,WeatherDisplay:10.37,2013-02-09 05:27:00,
2013-02-08 23:32:00,47.3,41.4,29.96,SE,134,6.9,6.9,80,0.00,CLR,,0.00,1.0,WeatherDisplay:10.37,2013-02-09 05:32:00,
2013-02-08 23:38:00,47.2,41.7,30.14,ESE,119,11.5,11.5,81,0.00,CLR,,0.00,1.0,WeatherDisplay:10.37,2013-02-09 05:38:00,
2013-02-08 23:43:00,46.9,41.4,30.17,SE,129,4.6,4.6,81,0.00,CLR,,0.00,1.0,WeatherDisplay:10.37,2013-02-09 05:43:00,
2013-02-08 23:48:00,46.6,41.7,30.17,ESE,121,8.1,8.1,83,0.00,CLR,,0.00,1.0,WeatherDisplay:10.37,2013-02-09 05:48:00,
2013-02-08 23:53:00,46.9,41.7,30.01,SE,128,6.9,6.9,82,0.00,CLR,,0.00,1.0,WeatherDisplay:10.37,2013-02-09 05:53:00,
2013-02-08 23:58:00,46.7,42.1,30.15,ESE,119,9.3,9.3,84,0.00,CLR,,0.00,1.0,WeatherDisplay:10.37,2013-02-09 05:58:00,